Location: O'Brien
(30.0517°N, 82.9900°W)
Time: 04:11:58
(UTC-05:00)

Hubble Space Telescope - Pass Details

Date: 28 October 2019
Orbit: 536 x 540 km, 28.5° (Epoch: 12 November)

Event Time Altitude Azimuth Distance (km) Brightness Sun altitude
Exits shadow 07:13:06 - 245° (WSW) 2,339 3.5 -7.1°
Reaches altitude 10° 07:14:34 10° 240° (WSW) 1,777 3.0 -6.8°
Maximum altitude 07:18:31 46° 167° (SSE) 715 1.6 -5.9°
Drops below altitude 10° 07:22:28 10° 93° (E) 1,778 5.2 -5.1°
Sets 07:24:47 0° 87° (E) 2,669 6.2 -4.6°
